Regional Weather Roundup
Issued by NWS Albany, NY

Home | Current Version | Previous Version | Text Only | Print | Product List | Glossary Off
Versions: 1 2 3 4 5 6 7 8 9 10 11 12 13 14 15 16 17 18 19 20 21 22 23 24 25 26 27 28 29 30 31 32 33 34 35 36 37 38 39 40 41 42 43 44 45 46 47 48 49 50

000
ASUS41 KALY 210210
RWRALY

NEW YORK STATE HOURLY WEATHER ROUNDUP
NATIONAL WEATHER SERVICE ALBANY NY
1000 PM EDT MON OCT 20 2014

NOTE: "FAIR" INDICATES FEW OR NO CLOUDS BELOW 12,000 FEET WITH NO
SIGNIFICANT WEATHER AND/OR NO OBSTRUCTIONS TO VISIBILITY.

NYZ032-033-038>043-046>054-057>066-NYZ062>081-210300-
EAST


CITY           SKY/WX    TMP DP  RH WIND       PRES   REMARKS
ALBANY         CLOUDY    52  36  54 S8        29.94S
GLENS FALLS    CLOUDY    47  38  71 CALM      29.93F
POUGHKEEPSIE   CLOUDY    52  38  58 SE3       29.96F
NEWBURGH       PTCLDY    52  41  66 CALM      29.97
MONTGOMERY     CLOUDY    45  39  79 CALM      29.96S
WHITE PLAINS   MOCLDY    48  40  73 CALM      29.97F
ISLIP          MOCLDY    56  45  66 SW6       29.98S
NEW YORK CITY  MOCLDY    57  41  55 S5        29.98S
CENTRAL PARK   MOCLDY    58  41  53 MISG      30.00S
$$

NYZ005>009-017-018-044>046-055-056-210300-
CENTRAL


CITY           SKY/WX    TMP DP  RH WIND       PRES   REMARKS
FULTON         LGT RAIN  50  42  74 CALM      29.87R
SYRACUSE       LGT RAIN  56  38  50 SW13      29.87S
ROME           CLOUDY    51  39  63 E6        29.90S
ELMIRA         CLOUDY    52  41  66 S6        29.88F
BINGHAMTON     CLOUDY    49  36  61 S6        29.90S
MONTICELLO     CLOUDY    46  37  71 E3        29.96S
$$

NYZ026>034-041>043-210300-
NORTH


CITY           SKY/WX    TMP DP  RH WIND       PRES   REMARKS
WATERTOWN      CLOUDY    52  40  63 SE3       29.86S
FORT DRUM      NOT AVBL
MASSENA        CLOUDY    44  44 100 CALM      29.92S
SARANAC LAKE   CLOUDY    40  37  89 CALM      29.89R
PLATTSBURGH    MOCLDY    43  40  89 CALM      29.93S
$$

NYZ001>004-010>016-019>021-210300-
WEST


CITY           SKY/WX    TMP DP  RH WIND       PRES   REMARKS
NIAGARA FALLS  LGT RAIN  52  48  86 S13       29.81S
BUFFALO        CLOUDY    51  46  83 S13       29.83S
DUNKIRK        CLOUDY    52  46  80 SW14G22   29.82F
JAMESTOWN      CLOUDY    46  43  87 S7        29.85S
WELLSVILLE     LGT RAIN  48  40  73 VRB7      29.87S
ROCHESTER      RAIN      50  47  89 S6        29.85S
PENN YAN       RAIN      50  43  77 S6        29.87S
$$

             KEY
       WCI = WIND CHILL INDEX
       VSB = VISIBILITY
       HX  = HEAT INDEX
$$


USA.gov is the U.S. government's official web portal to all federal, state and local government web resources and services.